Location: Newark
(42.8481°N, 0.4872°E)
Time: 19:49:49
(UTC+00:00)

Transit 2A - Pass Details

Date: 27 October 2020
Orbit: 595 x 963 km, 66.7° (Epoch: 03 December)

Event Time Altitude Azimuth Distance (km) Brightness Sun altitude
Rises 23:49:55 0° 175° (S) 3,593 - -60.3°
Reaches altitude 10° 23:52:47 10° 164° (SSE) 2,676 - -60.3°
Maximum altitude 23:58:01 28° 108° (ESE) 1,721 - -60.1°
Drops below altitude 10° 00:03:15 10° 52° (NE) 2,684 - -60.0°
Sets 00:06:06 0° 41° (NE) 3,606 - -59.9°
